Terminal Aerodrome Forecast
Issued by NWS Jacksonville, FL

Home | Current Version | Previous Version | Text Only | Print | Product List | Glossary On
Versions: 1 2 3 4 5 6 7 8 9 10 11 12 13 14 15 16 17 18
937
FTUS42 KJAX 290319 AAB
TAFGNV
TAF AMD
KGNV 290319Z 2903/2924 20003KT P6SM SCT004 BKN150
     FM290500 20003KT 6SM BR SCT004 BKN250
     FM291400 24005KT P6SM VCSH SCT025 SCT120
     FM291700 25007KT P6SM VCTS SCT030CB
      TEMPO 2918/2922 3SM TSRA BR BKN020CB=

USA.gov is the U.S. government's official web portal to all federal, state and local government web resources and services.